Change the Weather History Date:

Sunday, October 14, 2012

  Actual Average (KGYR) Record (KGYR)
Temperature  
Mean Temperature 71 °F -  
Max Temperature 89 °F 88 °F 98 °F (1999)
Min Temperature 53 °F 59 °F 53 °F (1998)
Cooling Degree Days 6    
Growing Degree Days 21 (Base 50)    
Moisture  
Dew Point 40 °F    
Average Humidity 33    
Maximum Humidity 58    
Minimum Humidity 17    
Precipitation  
Precipitation 0.00 in - - ()
Sea Level Pressure  
Sea Level Pressure 30.01 in    
Wind  
Wind Speed 6 mph (NE)    
Max Wind Speed 14 mph    
Max Gust Speed 21 mph    
Visibility 10 miles    
Events      
Averages and records for this station are not official NWS values.
T = Trace of Precipitation, MM = Missing Value Source: NWS Daily Summary

Daily Weather History Graph

Daily Weather History Graph

Search for Another Location

Airport or City:

Trip Planner

Search our weather history database for the weather conditions in past years. The results will help you decide how hot, cold, wet, or windy it might be!

Date:

Astronomy

Oct. 14, 2012 Rise Set
Actual Time 6:35 AM MST 5:57 PM MST
Civil Twilight 6:09 AM MST 6:22 PM MST
Nautical Twilight 5:41 AM MST 6:51 PM MST
Astronomical Twilight 5:12 AM MST 7:20 PM MST
Moon 5:39 AM MST (10/14) 5:20 PM MST (10/14)
Length of Visible Light 12h 12m
Length of Day
11h 22m
Waning Crescent, 1% of the Moon is Illuminated
Oct 14
Waning Crescent
Oct 15
New
Oct 21
First Quarter
Oct 29
Full
Nov 6
Last Quarter

Hourly Weather History & Observations

Time (MST) Temp. Dew Point Humidity Pressure Visibility Wind Dir Wind Speed Gust Speed Precip Events Conditions
12:15 AM 64.4 °F 39.2 °F 40% 30.04 in 10.0 mi NNW 8.1 mph - N/A   Clear
12:35 AM 66.2 °F 41.0 °F 40% 30.04 in 10.0 mi NNW 6.9 mph - N/A   Clear
12:55 AM 64.4 °F 41.0 °F 42% 30.04 in 10.0 mi North 6.9 mph - N/A   Clear
1:15 AM 64.4 °F 41.0 °F 42% 30.05 in 10.0 mi NNW 6.9 mph - N/A   Clear
1:35 AM 64.4 °F 41.0 °F 42% 30.05 in 10.0 mi North 8.1 mph - N/A   Clear
1:55 AM 62.6 °F 41.0 °F 45% 30.05 in 10.0 mi ENE 5.8 mph - N/A   Clear
2:15 AM 64.4 °F 42.8 °F 45% 30.05 in 10.0 mi NE 4.6 mph - N/A   Clear
2:35 AM 62.6 °F 42.8 °F 48% 30.05 in 10.0 mi Calm Calm - N/A   Clear
2:55 AM 64.4 °F 41.0 °F 42% 30.04 in 10.0 mi Calm Calm - N/A   Clear
3:15 AM 62.6 °F 42.8 °F 48% 30.04 in 10.0 mi Calm Calm - N/A   Clear
3:35 AM 59.0 °F 41.0 °F 51% 30.04 in 10.0 mi NNW 6.9 mph - N/A   Clear
4:15 AM 59.0 °F 41.0 °F 51% 30.04 in 10.0 mi Calm Calm - N/A   Clear
4:35 AM 59.0 °F 41.0 °F 51% 30.05 in 10.0 mi Calm Calm - N/A   Clear
4:55 AM 57.2 °F 39.2 °F 51% 30.05 in 10.0 mi Calm Calm - N/A   Clear
5:15 AM 55.4 °F 39.2 °F 54% 30.05 in 10.0 mi North 3.5 mph - N/A   Clear
5:35 AM 53.6 °F 39.2 °F 58% 30.06 in 10.0 mi NNW 3.5 mph - N/A   Clear
5:55 AM 53.6 °F 39.2 °F 58% 30.06 in 10.0 mi NNW 4.6 mph - N/A   Clear
6:15 AM 55.4 °F 39.2 °F 54% 30.06 in 10.0 mi NW 3.5 mph - N/A   Clear
6:35 AM 55.4 °F 39.2 °F 54% 30.06 in 10.0 mi NW 5.8 mph - N/A   Clear
6:55 AM 55.4 °F 39.2 °F 54% 30.07 in 10.0 mi NW 6.9 mph - N/A   Clear
7:15 AM 57.2 °F 39.2 °F 51% 30.07 in 10.0 mi NW 6.9 mph - N/A   Clear
7:35 AM 59.0 °F 41.0 °F 51% 30.08 in 10.0 mi NW 5.8 mph - N/A   Clear
7:55 AM 62.6 °F 41.0 °F 45% 30.09 in 10.0 mi North 4.6 mph - N/A   Clear
8:15 AM 64.4 °F 41.0 °F 42% 30.09 in 10.0 mi Calm Calm - N/A   Clear
8:35 AM 68.0 °F 41.0 °F 37% 30.10 in 10.0 mi Calm Calm - N/A   Clear
8:55 AM 69.8 °F 41.0 °F 35% 30.10 in 10.0 mi Calm Calm - N/A   Clear
9:15 AM 71.6 °F 41.0 °F 33% 30.10 in 10.0 mi North 3.5 mph - N/A   Clear
9:35 AM 73.4 °F 41.0 °F 31% 30.10 in 10.0 mi Calm Calm - N/A   Clear
9:55 AM 75.2 °F 44.6 °F 34% 30.10 in 10.0 mi SSE 5.8 mph - N/A   Clear
10:15 AM 73.4 °F 44.6 °F 36% 30.09 in 10.0 mi Calm Calm - N/A   Clear
10:35 AM 75.2 °F 44.6 °F 34% 30.09 in 10.0 mi SSE 3.5 mph - N/A   Clear
10:55 AM 77.0 °F 44.6 °F 32% 30.08 in 10.0 mi NE 3.5 mph - N/A   Clear
11:15 AM 78.8 °F 44.6 °F 30% 30.07 in 10.0 mi Calm Calm - N/A   Clear
11:35 AM 80.6 °F 41.0 °F 24% 30.07 in 10.0 mi ENE 3.5 mph - N/A   Clear
11:55 AM 82.4 °F 39.2 °F 21% 30.06 in 10.0 mi NE 3.5 mph - N/A   Clear
12:15 PM 84.2 °F 44.6 °F 25% 30.05 in 10.0 mi SSE 5.8 mph - N/A   Clear
12:35 PM 84.2 °F 41.0 °F 22% 30.03 in 10.0 mi SE 5.8 mph - N/A   Clear
12:55 PM 86.0 °F 41.0 °F 20% 30.02 in 10.0 mi South 4.6 mph - N/A   Clear
1:15 PM 86.0 °F 42.8 °F 22% 30.01 in 10.0 mi SSE 3.5 mph - N/A   Clear
1:35 PM 89.6 °F 39.2 °F 17% 29.99 in 10.0 mi SE 12.7 mph - N/A   Clear
1:55 PM 89.6 °F 39.2 °F 17% 29.98 in 10.0 mi ESE 10.4 mph 17.3 mph N/A   Clear
2:15 PM 89.6 °F 39.2 °F 17% 29.97 in 10.0 mi ESE 12.7 mph - N/A   Clear
2:35 PM 89.6 °F 39.2 °F 17% 29.96 in 10.0 mi East 13.8 mph 20.7 mph N/A   Clear
2:55 PM 89.6 °F 39.2 °F 17% 29.95 in 10.0 mi East 10.4 mph - N/A   Clear
3:15 PM 89.6 °F 39.2 °F 17% 29.95 in 10.0 mi ESE 11.5 mph - N/A   Clear
3:35 PM 89.6 °F 41.0 °F 18% 29.94 in 10.0 mi ESE 10.4 mph - N/A   Clear
3:55 PM 89.6 °F 39.2 °F 17% 29.94 in 10.0 mi SE 9.2 mph - N/A   Clear
4:15 PM 89.6 °F 39.2 °F 17% 29.94 in 10.0 mi SE 9.2 mph - N/A   Clear
4:35 PM 89.6 °F 41.0 °F 18% 29.94 in 10.0 mi SE 9.2 mph - N/A   Clear
4:55 PM 87.8 °F 41.0 °F 19% 29.93 in 10.0 mi SE 9.2 mph - N/A   Clear
5:15 PM 86.0 °F 42.8 °F 22% 29.93 in 10.0 mi SE 6.9 mph - N/A   Clear
5:35 PM 86.0 °F 41.0 °F 20% 29.93 in 10.0 mi SSE 4.6 mph - N/A   Clear
5:55 PM 82.4 °F 44.6 °F 26% 29.93 in 10.0 mi SE 4.6 mph - N/A   Clear
6:15 PM 82.4 °F 44.6 °F 26% 29.93 in 10.0 mi SE 3.5 mph - N/A   Clear
6:35 PM 82.4 °F 39.2 °F 21% 29.93 in 10.0 mi SE 3.5 mph - N/A   Clear
6:55 PM 80.6 °F 39.2 °F 23% 29.93 in 10.0 mi Calm Calm - N/A   Clear
7:15 PM 77.0 °F 39.2 °F 26% 29.94 in 10.0 mi Calm Calm - N/A   Clear
7:35 PM 75.2 °F 35.6 °F 24% 29.94 in 10.0 mi NNW 8.1 mph - N/A   Clear
7:55 PM 73.4 °F 37.4 °F 27% 29.94 in 10.0 mi NNW 8.1 mph - N/A   Clear
8:15 PM 75.2 °F 35.6 °F 24% 29.95 in 10.0 mi North 9.2 mph - N/A   Clear
8:35 PM 73.4 °F 35.6 °F 25% 29.95 in 10.0 mi North 9.2 mph - N/A   Clear
8:55 PM 73.4 °F 35.6 °F 25% 29.95 in 10.0 mi North 9.2 mph - N/A   Clear
9:15 PM 73.4 °F 35.6 °F 25% 29.95 in 10.0 mi North 9.2 mph - N/A   Clear
9:35 PM 73.4 °F 35.6 °F 25% 29.96 in 10.0 mi North 9.2 mph - N/A   Clear
10:15 PM 75.2 °F 35.6 °F 24% 29.96 in 10.0 mi North 9.2 mph - N/A   Clear
10:35 PM 73.4 °F 35.6 °F 25% 29.96 in 10.0 mi NNW 9.2 mph - N/A   Clear
10:55 PM 73.4 °F 35.6 °F 25% 29.95 in 10.0 mi NNW 8.1 mph - N/A   Clear
11:15 PM 71.6 °F 37.4 °F 29% 29.95 in 10.0 mi NNW 9.2 mph - N/A   Clear
11:35 PM 71.6 °F 37.4 °F 29% 29.95 in 10.0 mi NNW 10.4 mph - N/A   Clear
11:55 PM 69.8 °F 37.4 °F 31% 29.95 in 10.0 mi ENE 4.6 mph - N/A   Clear